Location: Santa Maria di Sala
(45.5070°N, 12.0300°E)
Time: 07:35:13
(UTC+02:00)

STRAND 1 - Pass Details

Date: 04 March 2024
Orbit: 764 x 779 km, 98.4° (Epoch: 16 April)

Event Time Altitude Azimuth Distance (km) Brightness Sun altitude
Rises 19:43:17 0° 5° (N) 3,262 ? -18.2°
Reaches altitude 10° 19:45:48 10° 356° (N) 2,328 ? -18.7°
Maximum altitude 19:50:19 32° 294° (WNW) 1,297 ? -19.4°
Drops below altitude 10° 19:54:47 10° 232° (SW) 2,306 ? -20.2°
Sets 19:57:17 0° 223° (SW) 3,226 ? -20.6°
